Shazud

Tajikistan     37˚42′51″N   72˚21′46″E
temp.,
°C
wind,
m/s
gust,
m/s
humid.,
%
clouds,
%
prec.,
mm/h
press.,
hPa
HPBL,
m
1 december, tue
tue123:00−12˚sse2297100 2.9 103231
02:00−11˚s1296100 1.4 103130
05:00−12˚s2296100 2.8 103126
08:00−12˚sse339599 1.4 103177
11:00−8˚ssw348792 2.5 1027393
14:00−7˚sw468196 0.7 1024709
17:00−12˚sw339186 1.1 102723
20:00−14˚sw229480 0.8 103121
2 december, wed
wed223:00−17˚sse119980 0.9 103320
02:00−18˚e1110092 0.1 103420
05:00−19˚e1210087 0.1 103620
08:00−19˚e229759 0.0 103720
11:00−13˚ese218737 0.0 103293
14:00−11˚sw118433 0.0 1027185
17:00−19˚sw0110047 0.0 103020
20:00−21˚e019877 0.0 103320
3 december, thu
thu323:00−21˚ene129652 0.0 103520
02:00−22˚e119038 0.0 103520
05:00−22˚e119258 0.0 103620
08:00−20˚e228989 0.0 103720
11:00−14˚ese117993 0.0 103170
14:00−11˚sw1170100 0.0 1026174
17:00−16˚sw1182100 0.0 102720
20:00−16˚nw0187100 0.0 102920
4 december, fri
fri423:00−15˚se1196100 0.5 102921
02:00−15˚ese2291100 0.4 102723
05:00−15˚ese2295100 1.2 102538
08:00−15˚se1296100 2.1 102664
11:00−12˚ssw2294100 3.8 1022249
14:00−11˚wsw3493100 1.3 1020362
17:00−14˚w3397100 2.2 102349
20:00−16˚wsw3399100 0.6 102828
5 december, sat
sat523:00−19˚w2210099 0.9 103120
02:00−22˚w1210099 0.1 103320
05:00−24˚e01100100 0.1 103420
08:00−24˚e229989 0.0 103620
11:00−17˚ese228760 0.0 1029113
14:00−15˚s12780 0.0 1024213
17:00−23˚wsw11980 0.0 102920
20:00−24˚ene128942 0.0 103220